Regional Weather Roundup
Issued by NWS

Home | Current Version | Previous Version | Graphics & Text | Print | Product List | Glossary On
Versions: 1 2 3 4 5 6 7 8 9 10 11 12 13 14 15 16 17 18 19 20 21 22 23 24 25 26 27 28 29 30 31 32 33 34 35 36 37 38 39 40 41 42 43 44 45 46 47 48 49 50
802
ASUS43 KLOT 280803
RWRIL

ILLINOIS REGIONAL WEATHER ROUNDUP
NATIONAL WEATHER SERVICE CHICAGO/ROMEOVILLE IL
300 AM CDT SAT MAY 28 2016

NOTE: "FAIR" INDICATES FEW OR NO CLOUDS BELOW 12,000 FEET WITH NO
SIGNIFICANT WEATHER AND/OR OBSTRUCTIONS TO VISIBILITY.

* THESE STATIONS ARE NOT UNDER NWS QUALITY CONTROL. THEY ALSO MAY NOT
  REPORT WEATHER SUCH AS PRECIPITATION OR FOG.

ILZ001-002-007-009-015-016-024-280900-
NORTHWEST ILLINOIS

CITY           SKY/WX    TMP DP  RH WIND       PRES   REMARKS
MOLINE         CLOUDY    71  65  81 S14G21    29.74S
STERLING*      CLOUDY    69  66  90 SE8       29.79S
$$

ILZ003-004-008-010-011-017-018-280900-
NORTH CENTRAL ILLINOIS

CITY           SKY/WX    TMP DP  RH WIND       PRES   REMARKS
ROCKFORD       CLOUDY    70  65  84 S16       29.82F
FREEPORT*      LGT RAIN  67  65  92 S18G25    29.80S
ROCHELLE*      CLOUDY    67  65  91 S10       29.82F
$$

ILZ005-006-012>014-019>023-280900-
NORTHEAST ILLINOIS

CITY           SKY/WX    TMP DP  RH WIND       PRES   REMARKS
CHICAGO-OHARE  CLOUDY    68  65  90 S8        29.85F
CHICAGO-MIDWAY CLOUDY    70  64  81 S8        29.86F
AURORA         CLOUDY    69  65  86 SE13      29.84F
LANSING*       MOCLDY    68  64  86 S6        29.89S
WAUKEGAN       CLOUDY    69  65  86 S8        29.85S
DUPAGE AIRPORT CLOUDY    69  63  81 S8        29.84F
WHEELING       CLOUDY    68  64  87 SE8       29.86S
NORTHERLY ISL    N/A     66  61  84 S9          N/A
NORTHERLY ISL    N/A     66  61  84 S9          N/A
$$

LMZ740>746-280900-
SOUTHERN LAKE MICHIGAN

STATION/POSITION SKY/WX   TEMP    WIND        PRES    VSBY  WAVE
                          AIR SEA DIR/SP/G                  HT/PER
                          (F)     (DEG/KT/KT) (MB)    (MI)  (FT/S)
SOUTHERN BUOY              55 50  150/ 10/ 12 1011.3          2/ 3
WILMETTE HARBOR            60 53  160/  6/  8   N/A           1/ 2
HARRISON CRIB              68     180/ 13/ 14   N/A
BURNHAM HARBOR             67     160/  8/ 11   N/A
CALUMET HARBOR             70     170/  8/ 11 1011.2S
BURNS HARBOR               70     160/ 10/ 16 1012.9R
MICHIGAN CITY              70     130/  8/ 10   N/A
MICHIGAN CITY 6N           65 58  170/  8/  8   N/A           1
ST. JOSEPH                 66 61  140/  8/ 10   N/A           1/ 3
$$

ILZ025>027-034>036-040-047-049-050-058-095>099-280900-
WEST-CENTRAL ILLINOIS

CITY           SKY/WX    TMP DP  RH WIND       PRES   REMARKS
QUINCY         CLOUDY    69  66  90 S10       29.78S
MACOMB*        CLOUDY    69  67  94 S10       29.80S
PITTSFIELD*    MOCLDY    69  68  94 S10       29.82S
$$

ILZ028>032-037-038-041>044-048-051>054-059>061-280900-
CENTRAL ILLINOIS

CITY           SKY/WX    TMP DP  RH WIND       PRES   REMARKS
BLOOMINGTON    CLOUDY    69  68  97 S16       29.86F
DECATUR        CLOUDY    71  65  81 S14       29.87R
PEORIA         CLOUDY    70  66  87 S16       29.80S
LINCOLN*       CLOUDY    71  67  88 S15       29.83S
SPRINGFIELD    CLOUDY    72  66  81 S14       29.84R
TAYLORVILLE    NOT AVBL
$$

ILZ033-039-045-046-055>057-062-063-280900-
EAST-CENTRAL ILLINOIS

CITY           SKY/WX    TMP DP  RH WIND       PRES   REMARKS
CHAMPAIGN      CLOUDY    71  64  78 S18       29.89R
MATTOON        CLOUDY    70  63  78 S9        29.90R
$$

ILZ079-100>102-280900-
SOUTHWEST ILLINOIS

CITY           SKY/WX    TMP DP  RH WIND       PRES   REMARKS
BELLEVILLE     MOCLDY    68  68 100 E6        29.86R
CAHOKIA*       PTCLDY    71  64  78 S7        29.85R
SPARTA*        CLOUDY    69  65  86 S8        29.89S
$$

ILZ064>066-069>071-074>076-080>082-084>086-088>090-092>094-280900-
SOUTH-CENTRAL ILLINOIS

CITY           SKY/WX    TMP DP  RH WIND       PRES   REMARKS
CARBONDALE     CLOUDY    69  64  84 S10       29.90R
EFFINGHAM*     CLOUDY    70  67  92 SE8       29.93R
MT. VERNON     CLOUDY    70  63  78 S9        29.91S
SALEM*         CLOUDY    71  66  83 S8        29.90R
$$

ILZ067-068-072-073-078-083-087-091-280900-
SOUTHEAST ILLINOIS

CITY           SKY/WX    TMP DP  RH WIND       PRES   REMARKS
LAWRENCEVILLE  PTCLDY    74  65  73 S14       29.93F
FLORA*         CLOUDY    71  67  86 S7        29.92S
HARRISBURG*    CLOUDY    72  66  81 S3        29.93R
ROBINSON*      PTCLDY    72  64  77 S9        29.93S
$$

ABBREVIATIONS USED IN REMARKS
   TC - TEMPERATURE IN CELSIUS
  WCI - WIND CHILL INDEX
   HX - HEAT INDEX
  VSB - VISIBILITY
$$





USA.gov is the U.S. government's official web portal to all federal, state and local government web resources and services.